Location: Shepherdstown, WV
(39.4326°N, 77.8042°W)
Time: 04:34:58
(UTC-04:00)

Vanguard 3 - Pass Details

Date: 06 August 2021
Orbit: 510 x 3260 km, 33.3° (Epoch: 21 September)

Event Time Altitude Azimuth Distance (km) Brightness Sun altitude
Rises 00:09:46 0° 282° (WNW) 6,853 12.2 -31.8°
Reaches altitude 10° 00:14:48 10° 274° (W) 6,038 11.8 -32.1°
Maximum altitude 00:30:51 33° 220° (SW) 4,461 10.5 -32.9°
Enters shadow 00:32:52 33° 210° (SSW) 4,447 10.4 -33.0°
Drops below altitude 10° 00:45:30 10° 164° (SSE) 5,458 - -33.4°
Sets 00:49:50 0° 155° (SSE) 6,139 - -33.6°
